SCOUT G-1 DEB

基本信息
目录编号:
19559
目录名称:
SCOUT G-1 DEB
国际标识:
1988-074F
轨道中心:
EARTH
物体状态:
在轨
发射日期:
1988-08-25 UTC
轨道信息
数据来源: 国际轨道数据
星历时间: 2026-07-13T08:14:58+0800
半长轴: 7466.579km
偏心率: 0.0094367
轨道倾角: 89.380°
近地点辐角: 224.714°
升交点赤经: 37.217°
平近点角: 290.987°
近地点: 1017.982km
远地点: 1158.902km
周期: 107.014分钟
每日圈数: 13.456135
详细信息
发射场:
AFWTR
轨道高度:
LEO
数据来源:
AOE Integration Group
参考系:
TEME
时间系统:
UTC
历元类型:
SGP4
2D轨道图
3D轨道图
轨道高度分析图
轨道倾角分析图
轨道综合分析图
查看轨道综合分析图